Погода в Лысовке

Россия / Смоленская область     54°10′33″N   32°44′45″E
темп.,
°C
ветер,
м/с
пор.,
м/с
влажн.,
%
обл.,
%
осадки,
мм/ч
давл.,
гПа
погр.,
м
23 апреля, пт
пт2300:00+7ю4108961 0.4 1012241
03:00+7ююз51194100 1.0 1011534
06:00+6з3693100 1.6 1012779
09:00+5зюз4782100 4.9 1013726
12:00+9юз585994 0.3 10131801
15:00+9юз6849100 0.3 10132032
18:00+8з4656100 0.1 1013981
21:00+4з257399 0.1 1013113
24 апреля, сб
сб2400:00+3зюз258082 0.0 1013105
03:00+1з35875 0.0 101299
06:000з229068 0.0 101141
09:00+4з2275100 0.1 1011708
12:00+3з449098 1.5 1011446
15:00+5зсз796698 3.3 10111322
18:00+5зсз695885 0.2 10121669
21:00+1з410815 0.3 1014282
25 апреля, вс
вс2500:000зюз411885 0.0 1014281
03:00−1юз49915 0.0 1014246
06:00−1зюз499449 0.1 1014385
09:00+2з687467 0.1 10141032
12:00+5зюз7847100 0.3 10132265
15:00+5з6853100 0.4 10131701
18:00+5з575956 0.2 10131541
21:00+1зюз39795 0.2 1014202
26 апреля, пн
пн2600:00−1зюз39875 0.0 1014183
03:00−1зюз37895 0.0 1015147
06:00−1зюз36875 0.0 1015166
09:00+4зюз45629 0.0 1014817
12:00+6зюз5656100 0.8 10121591
15:00+6зюз5652100 1.9 10121699
18:00+5зюз465792 0.5 10111244
21:00+1зюз3672100 0.6 1011105
27 апреля, вт
вт2700:000зюз358820 0.0 101195
03:00−1зюз35929 0.0 101198
06:00−1зюз379339 0.0 1011184
09:00+4з467112 0.0 1012865
12:00+7з6750100 0.4 10122038
15:00+7з5747100 0.9 10121989
18:00+7зсз47545 0.5 10121837
21:00+2зюз23710 0.5 101424